Terminal Aerodrome Forecast
Issued by NWS Mt. Holly, NJ

Home | Current Version | Previous Version | Text Only | Print | Product List | Glossary On
Versions: 1 2 3 4 5 6 7 8 9 10 11 12 13 14 15 16 17
000
FTUS41 KPHI 312103 AAA
TAFABE
TAF AMD
KABE 312103Z 3121/0118 26008G15KT P6SM SCT040 BKN200
     FM312300 26006KT P6SM SCT050
     FM010300 VRB02KT P6SM SKC
     FM011300 34003KT P6SM SKC=

USA.gov is the U.S. government's official web portal to all federal, state and local government web resources and services.